Theta_e
290 290 291 291 291 290 291 291 291 291 291 291 291 291 292 292 292 293 293 293 293 293 293 293 293 293 292 292 292 291 291 291 290 290 289 289 289 289 289 288 287 287 288 288 288 287 287 287 288 288 290 289 289 289 289 289 289 289 289 289 289 288 288 287 285 285 284 286 287 285 285 285 283 284 283 283 283 282 282 283 283 282 283 283 283
289 289 290 290 290 290 290 290 291 291 290 291 290 290 291 291 292 292 291 292 292 292 292 292 292 292 292 292 291 291 291 290 290 289 289 288 288 289 288 287 287 287 287 287 287 287 287 287 287 287 288 287 288 288 288 288 287 287 287 287 287 287 288 286 286 286 283 283 284 285 283 284 282 284 283 283 282 283 282 282 282 282 282 283 283
289 289 289 289 289 289 289 289 289 289 289 290 290 290 290 290 291 290 291 291 291 291 291 291 292 292 291 291 291 290 290 290 289 289 288 288 288 287 288 287 287 286 286 286 287 287 286 286 286 287 287 286 287 287 288 287 287 286 286 286 286 286 286 287 286 285 284 282 283 282 282 282 282 282 283 283 282 282 281 281 282 282 282 283 283
289 289 289 288 289 288 288 288 288 288 288 289 289 289 289 290 290 290 290 290 290 291 291 291 291 290 290 290 290 290 289 289 289 288 288 288 287 287 287 287 286 286 286 286 286 286 285 285 286 286 286 285 285 286 286 286 286 285 285 285 285 286 286 286 286 286 285 281 281 281 282 280 281 282 282 281 280 280 281 281 282 282 282 283 282
288 288 288 287 288 288 288 288 287 287 287 288 288 288 289 289 289 289 289 289 290 290 290 290 290 290 289 289 289 289 289 289 288 288 288 288 287 287 287 286 286 286 286 286 286 286 285 285 285 285 285 284 285 285 285 284 285 284 284 284 284 285 284 284 284 285 284 282 281 281 282 281 281 280 280 279 279 280 281 280 281 281 282 283 283
288 287 287 287 287 287 287 287 287 287 287 287 288 288 288 288 288 288 289 288 288 289 288 289 289 289 289 289 289 289 289 288 288 288 287 287 287 287 287 286 286 286 286 286 286 286 285 285 285 285 284 284 284 284 284 284 284 283 283 284 284 284 283 283 283 283 283 283 281 279 280 279 279 279 280 280 279 279 279 280 281 281 281 281 282
287 287 287 286 287 287 286 286 286 286 286 286 287 287 287 287 288 287 288 287 287 287 287 287 287 288 288 288 288 289 288 288 288 287 287 287 286 286 286 286 286 286 285 285 285 285 285 285 285 285 284 284 285 284 284 283 283 283 284 283 283 282 282 282 282 281 281 282 280 279 278 279 279 277 279 280 280 280 279 280 279 281 281 281 281
286 286 286 286 286 286 287 286 286 286 286 286 286 286 286 286 286 287 287 288 288 288 287 287 287 287 287 287 287 288 288 288 288 288 287 287 286 285 286 286 286 285 285 285 285 285 285 285 285 285 285 285 285 284 283 283 283 282 283 283 282 281 281 282 281 280 280 280 279 278 279 278 278 280 280 279 278 278 280 280 280 280 280 281 281
285 285 285 285 285 286 287 287 287 287 287 286 286 286 285 285 285 285 286 286 287 287 288 287 287 287 286 286 286 287 287 287 288 287 286 286 286 285 285 285 285 285 285 285 285 285 285 285 285 285 285 284 285 285 284 284 283 282 283 283 282 281 281 281 280 280 279 279 278 278 278 277 278 277 277 277 277 278 280 280 279 280 280 280 281
284 284 284 284 285 286 286 286 286 286 286 286 286 286 285 285 285 285 285 286 286 286 286 287 287 287 287 286 286 286 286 287 287 287 288 286 286 286 285 285 285 285 285 284 284 284 285 285 285 284 284 284 284 285 286 285 285 284 283 282 282 281 281 280 279 279 279 278 278 277 277 277 277 277 277 278 280 281 280 279 278 279 279 279 280
284 284 283 284 284 285 285 285 285 285 286 286 286 285 285 285 285 285 285 285 285 286 286 286 286 286 286 287 287 286 286 286 287 289 289 289 287 286 285 285 285 285 285 284 284 284 284 285 285 284 284 283 284 284 286 285 285 285 284 284 283 282 280 279 278 279 278 278 278 278 277 277 278 278 278 279 279 279 278 279 278 278 278 278 277
283 283 283 283 283 283 283 283 283 283 284 285 285 285 284 284 284 284 284 284 285 285 285 285 286 286 286 286 286 286 287 287 288 288 289 289 288 286 285 285 285 285 285 284 284 284 284 284 284 284 284 284 283 283 284 285 285 285 284 283 283 284 284 281 279 278 278 278 278 278 278 277 278 278 278 279 278 279 279 278 278 278 277 276 277
282 282 282 282 282 283 282 282 281 281 283 284 284 284 283 283 283 283 283 284 284 284 285 285 285 285 285 285 285 286 286 287 288 289 289 289 289 288 286 285 285 285 285 285 284 283 283 283 282 282 283 283 283 282 282 283 284 284 284 283 283 283 284 283 283 281 280 279 278 278 278 279 277 278 279 279 280 278 278 277 278 278 278 277 277
281 281 281 281 281 282 281 280 280 280 282 283 283 282 282 281 282 282 282 283 283 284 284 284 284 285 285 285 285 285 285 286 288 288 289 289 289 289 286 285 285 285 285 285 284 284 283 282 282 281 282 282 283 282 282 282 282 282 282 281 280 281 283 283 282 280 280 280 280 278 279 279 278 279 280 281 279 277 277 277 278 277 277 276 278
280 280 280 280 280 280 280 279 278 279 280 282 281 280 280 280 280 280 280 281 282 283 283 283 284 284 284 284 284 284 285 286 287 287 288 288 289 289 287 286 285 285 285 284 284 283 283 283 282 281 281 281 282 282 281 281 281 280 280 279 279 279 280 281 280 280 279 278 279 279 279 279 280 280 280 281 280 279 280 278 278 278 278 278 277
279 279 279 279 279 279 279 277 277 277 278 280 280 279 278 278 277 278 278 279 281 283 283 283 283 283 284 284 284 283 284 286 286 286 287 288 288 287 286 286 285 285 285 285 283 283 283 283 282 281 281 281 282 283 282 281 280 279 278 278 278 279 279 281 282 281 279 279 279 280 280 280 281 281 281 280 279 279 279 277 276 275 274 273 272
278 278 278 278 278 278 278 276 276 276 277 278 278 277 276 275 276 276 276 278 279 280 281 282 282 283 283 283 283 283 283 285 285 286 286 287 287 286 286 285 285 285 285 285 284 283 283 282 282 281 281 281 282 284 284 282 279 278 278 277 277 277 278 279 282 282 281 281 281 281 282 282 282 283 282 282 280 279 276 275 273 274 273 271 271
277 277 277 278 278 277 277 275 275 275 276 276 275 275 274 274 274 275 275 276 277 279 280 281 281 282 282 281 282 282 283 284 285 285 286 286 286 285 285 285 285 285 285 285 284 283 283 282 282 281 280 280 282 284 284 282 279 278 278 277 276 276 277 279 279 280 281 281 281 281 282 282 282 282 282 282 281 279 275 273 274 273 271 272 270
277 277 277 277 277 276 275 275 274 274 274 274 273 272 272 272 273 274 274 276 276 278 279 280 280 281 282 281 282 282 282 283 284 285 285 285 285 285 285 284 284 284 285 284 284 283 282 282 282 281 280 280 283 284 284 282 279 279 278 277 276 275 276 278 278 277 277 278 278 279 280 281 281 280 280 281 281 279 277 275 274 272 271 271 270
277 277 277 276 276 275 274 273 273 273 273 272 272 271 271 271 272 272 273 274 274 275 276 278 278 279 280 280 281 281 282 282 283 284 284 285 285 284 284 284 283 284 284 284 282 281 281 281 281 283 282 282 283 284 284 284 280 279 279 277 276 275 278 278 278 278 278 278 278 279 279 280 280 279 279 279 279 277 276 275 274 273 271 270 270
276 275 275 274 274 273 273 272 272 272 271 270 270 270 270 270 270 271 271 272 272 273 274 275 276 277 279 280 280 281 281 281 282 283 284 284 285 285 284 284 284 284 284 283 282 280 280 280 280 282 283 283 283 283 284 284 282 279 279 278 277 278 280 277 278 279 278 278 278 278 278 277 276 276 276 275 273 273 274 274 273 273 271 269 269
274 273 273 272 272 271 271 271 271 270 270 269 268 268 269 269 269 269 270 270 270 271 272 273 275 276 278 280 280 280 281 281 281 282 283 284 284 285 283 284 285 284 283 283 282 280 279 279 278 280 282 283 282 283 284 284 284 280 279 281 281 281 278 277 278 278 278 278 277 276 275 275 274 273 273 273 272 272 272 273 273 272 272 272 271
272 272 271 270 270 269 269 269 268 268 268 268 267 267 267 267 267 268 268 268 269 270 271 273 274 276 277 279 280 280 280 281 281 281 282 283 283 284 285 284 285 285 283 282 281 279 279 278 278 280 282 282 282 283 284 284 284 281 281 282 281 281 279 277 277 277 276 276 275 274 274 272 272 271 271 271 271 271 272 272 272 272 272 272 272
270 269 269 268 268 268 268 267 267 267 267 267 266 266 266 266 266 267 267 268 268 269 271 273 274 276 277 278 279 280 280 281 281 281 281 282 283 284 284 285 285 284 284 283 282 279 278 278 278 280 281 282 282 283 283 283 282 284 282 282 282 281 277 276 276 276 275 274 273 272 272 272 271 271 270 271 271 271 271 271 271 271 271 271 272
267 267 266 266 266 266 266 266 266 266 266 266 265 265 265 265 265 266 266 267 268 268 270 272 273 275 276 277 278 279 280 280 280 280 281 281 282 283 283 284 285 285 284 283 283 280 279 279 279 280 281 282 282 283 283 283 284 284 282 282 281 279 276 275 275 275 273 272 272 272 271 271 272 272 272 271 271 271 271 270 271 271 271 270 270
264 264 264 264 264 264 264 264 264 265 265 265 264 264 264 264 264 265 265 266 267 268 269 271 273 274 275 276 277 278 279 280 279 279 279 280 280 281 282 283 283 284 284 284 284 282 280 280 280 280 280 281 281 280 280 281 283 283 282 281 279 278 276 275 275 273 272 272 272 271 271 270 270 271 271 271 270 269 269 268 268 267 267 266 266
261 262 262 262 262 262 262 262 263 263 263 263 264 264 264 264 264 264 265 265 266 267 269 270 272 273 274 275 276 277 278 279 279 279 279 278 278 279 280 280 282 283 283 283 283 281 280 279 279 280 279 280 281 281 281 281 281 282 280 279 279 278 275 275 274 273 272 272 272 271 270 270 270 269 269 269 268 269 269 267 266 265 266 265 265
260 260 260 260 261 261 261 261 261 261 262 262 262 262 263 263 263 263 264 265 265 266 267 269 270 271 273 275 276 276 277 278 278 278 278 278 278 278 279 279 280 280 281 282 282 281 279 279 279 278 278 278 279 279 279 279 280 280 278 278 278 276 275 276 275 273 273 272 271 269 268 268 267 268 268 267 267 267 267 266 265 265 265 265 264
259 258 259 259 259 260 260 260 260 260 260 261 261 262 262 262 262 263 264 265 266 266 267 268 269 271 272 274 274 275 276 276 278 280 279 279 278 277 277 278 279 279 281 283 280 279 278 277 276 276 276 276 276 277 278 278 278 277 277 277 276 274 274 273 272 271 271 270 268 267 266 266 265 266 265 265 265 265 266 265 265 265 265 265 264
258 258 258 259 259 259 259 260 260 260 260 260 260 260 264 267 265 263 263 267 270 272 272 269 270 271 272 273 275 275 275 277 280 281 281 281 281 280 280 280 281 280 281 283 281 277 276 275 275 275 275 275 275 276 277 277 277 276 276 277 274 273 273 272 272 271 270 269 268 266 265 265 264 264 264 264 264 264 265 265 264 265 264 264 263
258 258 258 258 259 259 259 259 259 259 259 260 260 260 260 262 267 269 269 270 271 272 274 275 276 277 275 273 276 279 280 280 281 282 282 282 282 281 281 281 282 282 282 281 279 276 275 274 274 275 275 275 276 276 276 277 274 274 274 273 273 272 272 271 271 269 268 268 267 265 265 265 264 264 263 263 263 263 264 265 264 265 264 264 264
257 258 258 258 258 259 259 259 259 259 259 259 259 259 259 259 261 266 269 269 270 271 272 272 273 274 275 275 274 273 276 279 281 281 282 282 282 282 282 282 282 282 282 283 277 275 275 274 274 274 275 275 275 276 276 276 273 272 272 271 271 271 271 270 269 268 267 267 265 265 265 264 264 263 263 263 263 263 263 263 263 264 264 264 264
257 257 258 258 258 259 259 258 259 259 258 259 259 259 259 259 259 259 262 266 268 269 269 270 271 272 273 274 275 275 276 276 279 281 282 282 282 282 282 282 283 283 283 280 276 275 274 274 274 274 274 274 275 276 275 274 273 271 271 270 270 270 271 270 269 267 267 266 264 264 264 264 264 263 263 263 263 262 263 263 264 264 264 263 263
257 257 257 258 258 258 258 258 258 259 259 259 259 259 259 259 259 259 258 259 261 264 267 269 270 271 273 274 275 276 277 278 279 280 282 282 283 283 282 281 282 283 282 279 278 276 275 274 274 274 274 275 275 275 274 273 272 270 269 270 269 270 269 268 267 266 265 265 264 263 263 263 263 262 262 262 263 263 263 263 264 263 263 263 263
257 258 258 258 258 258 258 258 258 258 259 258 259 259 259 259 259 259 258 258 258 259 260 263 268 271 270 272 276 278 279 279 280 281 282 283 283 283 283 280 278 279 280 280 278 276 275 274 274 274 274 274 274 274 273 271 270 269 269 269 268 266 265 265 265 265 264 264 263 263 263 262 262 263 262 262 262 262 262 263 263 263 263 263 263
257 257 258 258 258 258 258 258 258 258 258 258 258 259 259 259 259 259 259 259 259 259 260 261 263 266 270 272 273 275 279 280 280 281 282 282 283 282 279 277 277 277 278 279 278 277 275 275 275 275 274 274 274 273 272 271 270 270 270 268 264 264 264 264 264 263 264 263 262 263 262 262 262 262 262 262 262 262 262 262 262 263 263 263 263
257 257 257 258 258 258 258 258 258 258 259 259 259 258 259 259 259 259 259 259 260 260 261 262 263 266 270 271 274 277 279 280 280 281 281 282 283 281 279 278 277 277 277 278 278 278 276 275 276 275 274 273 272 272 271 270 270 269 269 266 265 264 263 263 264 263 262 262 262 262 262 261 261 262 262 261 262 262 262 262 262 262 263 263 263
257 257 257 258 258 258 258 258 258 259 259 259 259 259 259 259 260 260 260 260 260 261 261 263 265 264 263 265 270 274 275 277 277 278 279 280 280 279 279 278 278 277 277 278 278 278 276 276 275 274 273 273 272 271 270 269 269 269 267 266 265 265 266 265 264 263 262 261 261 261 261 261 261 261 262 261 261 261 262 262 262 262 263 263 263
258 258 259 259 260 259 259 259 259 259 259 259 259 259 259 259 260 260 260 260 261 261 261 261 262 263 264 266 267 271 275 275 274 274 276 277 279 279 279 278 278 277 278 278 278 276 276 276 274 273 272 272 271 270 269 268 269 267 266 265 265 264 264 262 261 261 261 261 261 261 261 261 261 261 261 261 262 262 262 262 262 262 262 262 263
258 258 259 260 259 259 259 259 259 259 259 259 259 259 259 259 259 259 260 260 260 261 262 262 262 263 265 266 267 270 271 272 273 274 275 275 277 278 278 278 277 277 277 277 277 275 275 274 273 271 270 269 269 269 268 268 268 265 265 264 263 263 262 261 261 261 261 261 261 261 261 260 260 260 261 261 262 262 262 262 262 262 263 263 263
258 259 259 260 260 260 260 259 259 259 259 259 259 259 259 260 260 261 261 261 261 262 263 264 264 265 267 269 271 272 271 272 273 274 274 275 276 277 277 277 277 277 277 276 274 274 273 271 270 269 268 268 268 267 266 266 265 264 264 264 264 262 261 261 261 261 261 260 260 260 260 260 259 260 260 261 262 262 262 262 262 263 263 263 264
259 259 259 260 260 260 260 259 260 260 260 260 260 260 260 260 261 261 261 261 262 262 262 263 264 266 269 272 273 274 272 272 273 274 274 275 276 276 276 276 276 275 273 273 273 271 269 269 269 268 268 267 266 265 264 264 264 264 264 264 263 262 260 260 260 260 260 260 260 260 259 259 259 260 260 262 261 262 262 262 262 263 263 263 263
259 260 260 260 260 260 260 260 261 260 260 260 260 260 261 260 260 261 261 261 262 263 263 264 265 266 268 271 272 274 273 273 271 274 273 270 269 268 269 271 271 272 272 271 270 269 269 268 268 268 267 266 266 265 264 264 264 262 263 263 261 261 260 260 259 259 259 259 259 259 259 260 260 260 260 261 261 262 262 262 262 262 263 263 263
259 260 260 260 261 261 262 262 262 261 261 261 261 261 261 261 261 261 261 262 262 263 264 265 266 267 269 271 272 272 272 271 269 268 267 267 267 267 267 268 268 269 269 269 269 269 269 268 267 266 265 265 265 264 263 264 264 263 262 261 261 260 259 259 258 259 259 259 259 258 258 259 260 260 260 261 261 261 261 261 261 262 262 263 263
259 259 260 260 261 261 261 262 262 263 263 262 262 262 262 262 262 262 263 263 264 264 265 266 269 269 270 269 268 268 267 266 266 266 265 265 265 266 266 267 267 267 267 267 268 268 267 265 264 263 263 263 264 263 263 263 264 263 262 262 260 259 259 259 259 259 259 259 258 258 258 259 259 260 260 260 261 260 261 261 261 262 262 262 263
259 259 259 260 260 261 261 261 262 262 263 263 263 263 263 263 263 264 264 265 265 266 267 267 266 265 265 265 265 264 264 264 264 263 263 263 263 263 263 263 264 265 265 266 266 265 264 263 262 261 260 260 260 260 261 261 261 261 262 262 261 260 260 259 259 259 259 259 259 259 259 259 259 260 260 260 260 261 261 261 262 262 262 262 263
258 259 259 259 259 260 260 261 261 261 262 262 262 262 263 263 263 263 263 263 263 263 263 263 263 263 263 262 262 262 262 262 262 261 261 261 261 262 262 262 261 262 262 262 262 262 262 260 260 259 259 259 259 258 258 259 259 259 259 259 259 258 258 258 258 258 258 259 259 259 259 259 259 259 259 260 260 260 260 261 261 261 262 263 263
257 258 258 259 259 259 259 260 260 260 260 261 261 261 261 261 262 262 262 262 261 261 261 261 261 261 261 261 260 260 260 260 260 260 260 260 260 260 260 259 259 260 260 260 260 259 258 258 258 257 257 257 257 257 257 257 257 256 256 256 256 256 256 256 257 257 258 258 259 259 259 259 260 260 260 259 260 261 260 261 262 262 262 263 263
257 257 257 258 258 258 258 258 259 259 259 259 260 260 260 260 260 260 261 261 261 261 260 260 260 260 260 259 259 258 258 258 258 258 258 258 258 258 258 257 257 257 257 257 257 257 257 257 256 256 256 256 255 255 255 255 255 255 255 256 258 258 257 256 256 256 257 257 257 258 258 259 259 259 259 259 259 260 260 261 262 262 263 263 263
256 256 256 257 257 257 258 258 258 258 259 259 259 259 259 259 259 259 260 260 260 260 260 260 259 259 259 258 258 257 257 257 257 257 257 257 257 256 256 256 255 255 255 255 256 256 256 256 256 255 255 255 255 255 255 254 255 254 255 258 260 258 257 256 256 256 256 256 257 257 258 258 258 258 259 259 259 260 261 261 262 263 263 262 262
255 256 256 256 256 256 257 257 257 257 257 258 258 258 258 258 258 259 259 258 258 258 259 258 258 258 258 258 258 257 257 256 257 257 256 255 255 255 255 254 254 254 254 254 254 254 254 254 254 254 254 254 254 254 254 254 254 254 257 259 259 258 257 256 255 256 256 256 256 257 257 257 258 258 259 260 261 262 262 262 263 263 263 263 263
Wind_Speed
13 12 11 12 13 14 12 12 13 11 11 11 10 10 10 10 9 10 8 8 8 8 9 10 10 10 11 11 12 12 13 13 11 12 12 13 13 13 13 14 16 14 13 14 12 12 14 14 13 13 10 11 9 8 8 8 7 7 6 6 7 6 7 8 8 6 4 3 6 7 8 9 8 9 9 8 7 7 7 6 6 6 5 5 5
12 12 11 10 11 12 12 11 10 10 11 11 10 10 10 10 10 9 10 10 9 9 10 9 9 11 11 11 12 12 12 13 12 12 13 13 14 10 12 13 14 15 13 14 14 11 12 13 13 12 11 12 10 11 10 10 10 9 8 8 8 8 8 8 9 6 7 6 5 6 8 9 8 9 9 8 7 6 6 6 5 6 5 5 5
11 10 10 11 12 10 10 10 10 11 11 10 12 12 11 11 10 10 10 10 9 9 10 10 10 11 11 10 11 11 12 12 12 13 14 15 15 13 12 14 15 15 16 16 15 13 13 14 14 11 8 11 11 10 10 11 10 11 11 9 9 9 9 9 8 7 8 7 7 7 8 8 8 8 8 6 5 5 6 7 6 5 5 6 5
11 11 11 12 11 11 10 10 11 11 11 9 11 11 10 10 10 10 10 10 10 10 10 10 11 11 11 11 11 11 12 12 12 13 15 15 14 15 14 14 14 14 15 14 13 13 15 15 14 13 11 12 11 11 10 10 10 10 9 8 8 9 8 8 8 6 7 8 8 8 7 8 7 5 5 4 5 5 6 6 6 6 6 6 6
9 10 11 12 12 12 12 11 11 12 12 10 11 10 9 9 9 10 10 10 11 10 10 9 10 11 10 11 12 12 12 12 13 13 13 13 14 14 14 14 14 14 15 14 14 12 13 14 14 11 11 12 12 12 10 13 9 8 8 8 8 7 6 7 8 5 7 9 8 7 7 7 7 7 8 7 7 7 7 7 7 7 7 7 6
8 8 8 9 10 12 12 12 12 12 11 11 12 12 10 9 9 8 8 10 10 11 11 10 9 11 11 11 12 12 11 11 13 14 13 13 13 14 13 13 14 14 14 14 13 11 12 13 10 11 13 15 14 13 10 12 8 8 10 9 9 8 9 8 7 7 6 8 9 9 8 9 8 8 10 9 9 8 8 7 7 7 7 7 7
8 8 8 7 7 8 9 10 9 10 10 10 10 11 11 11 10 10 8 7 8 8 8 10 9 10 12 11 12 12 12 13 13 13 12 12 13 13 13 13 14 13 13 14 12 12 13 11 10 12 15 15 13 13 11 11 10 12 10 10 9 9 10 9 9 9 8 8 8 8 9 8 9 9 9 9 8 7 8 8 8 8 8 7 6
8 8 8 8 7 8 7 7 8 8 8 9 8 8 8 9 10 9 9 10 10 9 9 9 9 8 9 10 11 11 11 11 13 13 12 12 11 12 13 13 14 13 14 14 14 14 15 14 14 15 16 16 13 8 9 11 10 10 9 8 9 9 9 9 9 9 8 8 8 10 9 10 8 6 8 9 7 7 8 8 8 9 9 8 7
8 7 7 8 8 8 8 7 7 8 9 9 10 11 11 10 9 8 9 9 8 9 10 10 10 10 10 10 11 10 11 12 10 9 10 12 11 12 15 14 14 15 14 14 15 16 16 16 16 15 19 22 23 21 18 17 11 11 10 10 9 7 7 7 8 8 8 8 7 8 8 9 9 10 10 10 11 10 10 9 6 4 5 5 6
9 9 8 8 8 8 8 7 7 8 8 9 9 10 10 11 11 11 11 10 9 8 8 9 9 10 11 11 11 10 10 9 12 17 16 11 12 13 13 15 14 14 14 14 15 16 17 16 15 23 23 24 24 24 25 22 23 15 12 11 12 8 8 8 8 9 8 8 9 10 9 10 11 11 10 10 8 6 8 9 7 6 5 5 4
10 10 10 10 9 9 8 8 9 9 7 7 6 7 10 9 9 9 9 9 11 9 9 9 9 9 10 11 12 10 10 10 16 16 17 21 16 13 13 14 14 15 15 15 15 15 15 16 14 18 21 21 22 23 14 16 14 14 10 7 12 21 17 11 8 9 9 8 8 8 9 9 10 10 10 9 9 9 8 7 6 5 5 4 3
10 10 10 11 11 11 10 10 10 10 9 7 6 6 6 7 8 9 9 10 10 9 10 9 9 9 9 10 11 12 11 12 16 17 19 21 20 15 12 13 13 13 14 14 13 12 13 13 12 10 13 16 13 13 17 16 17 18 14 10 13 16 20 21 15 9 8 7 8 8 8 10 10 10 9 10 10 9 8 8 7 7 5 4 2
10 10 10 11 11 10 10 10 10 11 11 10 9 8 8 8 8 8 10 10 10 10 11 11 11 10 9 11 11 11 11 13 15 16 18 19 21 20 13 13 13 13 14 14 14 13 11 9 9 9 10 22 16 13 13 13 17 18 17 14 15 18 19 17 11 4 9 12 12 11 11 9 10 10 10 10 10 10 9 7 8 7 5 4 4
10 10 10 10 10 10 10 9 10 10 11 11 10 10 10 10 10 9 10 10 10 10 10 11 11 11 10 11 11 11 12 13 15 16 17 19 22 20 14 15 14 15 14 13 13 14 13 10 9 9 8 11 13 15 14 13 12 13 12 11 11 14 18 18 20 10 5 6 11 15 8 8 7 9 11 11 12 10 9 7 7 6 5 4 3
10 10 10 11 10 8 8 8 10 11 11 11 10 11 11 11 11 10 10 11 11 10 10 10 10 10 10 10 11 11 10 15 16 18 18 20 21 20 14 14 14 15 12 11 12 13 12 10 11 10 10 12 13 16 15 13 14 12 12 12 10 12 14 15 14 12 9 8 7 4 7 8 8 10 11 10 9 8 7 6 5 4 3 1 2
11 10 9 9 9 9 8 9 9 10 11 11 11 11 11 10 11 11 11 11 10 10 10 10 11 12 11 10 10 12 12 14 16 18 20 20 22 14 13 14 14 15 16 12 10 11 12 10 10 10 10 11 15 22 17 11 15 16 18 16 10 10 12 14 16 13 11 10 8 8 8 8 10 10 11 10 9 9 8 7 7 5 4 3 5
10 11 10 11 10 9 8 8 10 11 11 12 11 11 11 13 12 9 11 11 12 11 10 11 11 12 12 11 11 12 11 13 15 18 19 20 17 11 12 12 13 15 12 10 10 12 11 12 12 11 11 12 17 24 22 16 15 17 17 16 8 9 10 11 17 18 16 13 12 13 13 15 14 15 16 17 12 10 9 8 7 6 7 6 6
12 11 12 11 11 9 8 8 9 11 11 11 11 11 11 11 12 10 11 12 12 12 12 12 12 11 12 13 12 12 13 12 14 17 19 20 17 12 11 12 14 14 10 9 9 10 13 21 17 12 12 13 19 25 26 20 18 18 17 17 12 12 10 10 10 11 18 16 15 15 15 15 16 16 16 16 17 13 10 10 10 8 8 8 6
12 11 13 12 11 9 8 8 10 12 12 11 10 11 12 12 12 11 11 11 13 12 12 12 13 12 11 13 13 14 13 14 17 17 20 20 16 11 12 12 15 14 13 9 9 9 9 13 19 16 12 13 22 25 28 22 17 17 13 13 12 14 13 13 13 13 12 11 11 12 12 14 13 12 12 19 19 16 9 9 9 8 8 7 5
12 12 13 12 10 9 8 9 11 11 11 11 10 11 12 12 12 12 12 12 12 13 12 12 14 13 12 13 13 12 13 12 13 19 19 20 21 14 11 13 15 15 14 10 7 8 7 8 15 22 20 20 23 27 27 28 14 12 12 13 14 15 12 12 12 10 12 12 12 13 13 14 12 11 11 13 13 13 11 9 8 7 6 6 5
12 13 12 11 10 10 10 10 12 11 9 11 12 12 11 12 13 13 13 13 13 13 15 14 15 15 14 12 12 13 12 13 16 19 19 20 21 19 13 15 15 13 14 12 8 8 8 9 9 18 24 23 25 28 29 29 24 14 15 13 13 12 16 14 17 20 13 12 12 13 12 8 7 7 8 9 8 9 9 9 8 7 6 6 6
13 11 12 12 11 10 11 10 10 10 11 10 12 13 12 12 13 13 12 13 15 16 16 14 14 14 13 12 11 13 13 16 14 17 21 22 22 24 16 15 15 13 14 9 10 7 9 8 7 15 24 25 25 27 29 29 32 15 15 18 15 23 18 12 12 11 10 13 13 10 9 9 9 8 8 7 8 8 8 8 8 7 6 7 7
13 12 12 12 13 14 13 11 11 9 10 10 12 15 14 13 13 13 14 15 16 18 17 16 14 14 13 13 12 11 10 10 18 16 19 23 24 25 27 22 22 16 14 14 12 7 6 7 8 19 25 26 26 28 29 32 30 20 23 23 21 26 16 9 13 12 13 12 13 13 13 9 9 8 7 7 7 7 7 7 6 7 6 7 7
12 12 13 14 17 15 14 15 14 11 11 12 12 14 15 14 13 13 13 14 14 15 14 14 13 13 13 13 12 12 10 9 12 19 18 23 24 26 26 28 26 16 14 13 11 8 7 8 8 19 24 26 26 27 28 29 23 31 27 28 26 25 11 11 10 14 15 13 14 12 13 12 8 8 7 7 8 8 8 7 7 7 6 6 7
14 15 16 16 16 15 16 14 12 11 11 12 15 15 16 14 15 14 13 14 15 15 15 14 14 13 13 13 12 11 10 9 8 12 19 21 24 25 26 27 26 28 19 14 12 9 10 14 17 21 23 25 27 27 27 30 33 30 30 31 27 17 11 12 12 11 12 12 12 12 10 9 9 9 9 9 9 9 8 7 6 6 4 2 1
18 17 18 16 17 18 19 18 17 16 16 16 16 16 18 16 16 15 13 14 15 15 15 14 14 14 14 13 13 13 11 10 8 7 10 15 18 23 26 26 26 28 25 16 18 16 17 19 22 23 24 23 21 17 16 17 27 30 29 30 19 18 14 13 12 14 12 9 10 10 8 8 8 9 10 10 9 8 8 8 7 5 3 2 2
19 19 19 18 18 18 18 16 16 17 17 16 16 15 15 14 15 15 14 14 15 15 15 15 15 14 14 14 13 12 12 10 9 8 8 9 10 12 14 16 23 23 18 14 15 12 15 17 14 18 16 25 26 23 23 20 19 20 17 19 17 15 13 11 10 11 13 13 12 7 7 8 8 9 9 9 8 8 8 7 6 5 5 4 4
19 19 20 18 17 17 17 20 20 16 16 14 15 14 13 13 14 16 15 14 14 15 15 15 15 15 14 13 13 12 12 11 10 9 8 8 8 9 10 10 11 10 13 12 10 11 9 13 17 13 14 14 17 14 13 12 14 14 15 15 12 11 12 13 9 8 10 10 7 7 8 8 8 8 7 7 8 7 8 7 6 6 6 5 5
20 20 19 17 17 16 15 15 15 15 16 15 15 15 14 14 15 17 18 15 15 15 15 16 17 16 15 15 15 14 13 13 11 8 8 11 11 9 9 10 10 11 14 16 9 8 9 10 11 12 12 14 14 15 15 14 10 13 15 15 13 10 11 9 10 8 10 10 12 11 9 8 7 7 7 8 7 7 7 7 6 6 6 6 6
20 19 17 17 16 16 16 15 15 16 16 16 16 17 21 25 22 18 18 23 30 32 27 20 18 15 15 16 15 15 15 14 15 16 14 18 20 22 19 18 17 14 15 21 14 10 10 11 13 13 13 13 14 15 14 14 12 14 13 12 12 10 14 12 10 11 10 11 11 10 8 8 8 8 8 8 7 7 7 8 7 7 6 7 6
18 18 17 16 17 17 17 17 17 15 16 16 17 17 17 16 24 31 33 32 31 31 31 33 33 31 22 18 19 29 30 32 31 28 27 25 22 23 23 23 24 23 22 14 14 12 12 11 12 13 13 13 13 14 12 12 10 10 11 11 13 13 14 12 11 9 10 10 10 7 8 8 9 8 8 8 9 8 7 7 6 7 7 6 6
18 17 17 17 18 18 17 17 17 17 17 16 16 17 17 18 18 20 23 22 25 29 31 32 33 31 32 28 23 18 25 31 32 31 30 27 26 25 24 24 25 24 23 22 12 10 13 12 11 12 13 13 13 12 13 13 11 11 11 12 13 12 13 13 11 12 12 13 11 9 9 8 8 8 8 9 9 8 8 8 8 7 7 6 6
18 18 17 18 18 18 17 17 17 16 16 17 16 16 16 17 18 17 16 23 28 29 31 34 36 36 36 36 37 34 34 33 33 30 27 28 27 26 25 25 25 26 25 17 12 13 12 11 12 11 13 11 9 11 11 11 12 11 11 13 14 12 13 11 12 11 11 13 9 9 8 8 8 8 7 8 8 8 8 8 7 7 6 6 6
17 16 16 17 18 17 16 17 17 17 16 16 16 17 17 17 19 18 18 16 14 18 23 27 29 32 33 35 35 34 34 35 35 34 32 29 27 26 24 18 23 26 22 13 13 12 12 12 10 13 12 12 12 11 10 10 10 10 9 10 8 11 11 12 11 10 8 10 8 7 8 8 8 9 8 7 7 7 8 7 7 7 7 7 6
17 19 26 21 16 16 16 16 16 16 16 16 16 16 17 17 17 18 17 17 16 16 14 15 19 25 23 22 25 28 28 30 30 30 28 26 27 26 24 15 14 14 16 16 13 12 12 12 11 12 11 11 11 11 11 10 10 10 11 9 10 9 9 11 11 9 8 8 7 7 7 7 7 6 7 8 8 7 7 7 7 7 6 6 6
16 15 15 17 16 15 15 15 15 15 15 15 15 16 16 16 16 15 15 16 15 15 15 14 15 19 32 32 34 33 28 23 23 24 24 25 24 24 15 12 12 13 14 14 13 11 8 10 10 11 11 10 10 10 10 10 11 11 11 11 9 10 11 10 9 8 10 8 7 9 9 7 7 7 6 5 6 6 6 6 6 6 6 5 5
15 15 15 15 15 15 15 16 16 16 17 17 16 15 15 16 16 15 15 15 15 15 14 14 14 14 17 14 19 20 21 19 19 19 20 22 24 16 13 12 11 11 12 13 12 10 9 11 12 10 10 10 10 9 10 10 11 10 8 9 9 9 8 9 12 11 9 8 8 9 9 8 7 7 7 7 5 5 5 5 5 5 6 7 7
15 15 15 15 15 15 14 15 15 19 17 15 14 14 14 14 15 15 15 14 15 14 14 13 12 12 13 14 20 17 12 16 20 17 15 17 14 11 13 11 11 11 11 12 9 9 8 8 10 11 10 11 10 10 9 9 11 10 10 11 10 9 15 13 13 11 9 7 8 7 8 8 7 7 6 6 6 5 5 5 5 5 6 7 6
13 19 23 25 21 16 15 15 15 15 14 14 14 14 14 14 14 14 13 13 13 13 13 14 15 14 13 12 12 15 13 8 8 7 7 8 8 9 11 10 9 10 10 9 7 7 7 10 8 8 9 10 10 10 9 9 10 10 11 12 11 10 11 7 9 8 8 8 7 7 7 7 7 6 6 6 6 5 5 5 6 5 5 5 6
15 14 16 22 16 16 14 14 14 14 14 13 13 13 13 13 13 13 13 13 13 13 12 12 12 12 12 12 11 11 11 9 7 8 7 8 7 7 7 7 8 9 8 7 5 6 7 8 8 8 9 9 10 10 8 10 11 11 11 12 10 11 9 8 8 8 8 8 8 7 7 7 6 6 6 5 5 5 5 5 5 5 5 5 5
13 15 15 17 17 15 14 14 14 14 13 13 13 12 12 13 13 13 13 13 12 12 12 12 12 12 12 14 19 19 13 11 9 8 8 8 7 7 7 9 10 8 5 5 6 6 7 8 9 9 9 10 9 10 10 10 10 8 10 10 10 12 9 7 8 8 8 7 7 7 6 7 7 7 6 5 6 5 4 4 4 5 5 5 5
14 14 14 14 15 12 12 12 13 14 14 13 13 12 12 12 12 11 13 13 13 13 13 12 12 12 16 24 19 19 13 10 9 7 7 8 7 5 3 2 2 4 6 6 7 9 9 9 9 10 10 10 11 9 8 10 10 10 11 11 11 12 10 9 8 8 8 8 7 7 7 7 7 6 6 7 6 5 5 5 5 5 5 5 5
15 14 13 13 13 13 13 13 12 12 11 11 11 11 12 12 11 11 11 12 11 12 11 11 11 10 13 19 16 16 9 8 9 9 4 2 4 4 3 3 5 5 6 8 8 9 10 11 11 10 11 13 13 14 11 12 14 10 9 13 10 8 9 8 8 8 7 8 7 8 8 9 8 7 6 6 6 6 5 5 5 5 5 5 5
13 13 13 13 13 12 12 12 12 11 10 12 12 11 10 10 10 10 11 11 11 11 11 11 11 10 9 10 10 7 4 2 2 3 3 3 4 4 4 4 5 7 7 8 8 8 9 9 9 8 8 7 6 9 10 11 13 12 10 11 11 10 9 8 8 8 9 8 8 8 7 7 8 7 7 6 7 6 6 6 5 5 5 4 5
12 12 12 12 11 11 11 11 11 11 11 9 8 9 9 9 9 9 9 10 10 10 10 11 10 9 6 4 4 3 3 3 3 3 4 4 5 5 4 5 5 6 6 6 7 7 9 9 10 10 11 6 7 8 11 9 11 10 8 10 10 9 8 9 8 8 7 9 8 8 7 8 9 7 7 7 7 5 4 5 5 5 5 5 5
12 12 12 11 11 11 11 11 12 10 10 9 9 9 8 9 9 9 9 9 9 8 7 5 5 5 4 4 4 4 5 4 4 5 4 5 5 5 4 5 5 6 5 5 6 7 6 8 9 9 10 9 10 9 9 10 7 7 7 5 6 6 6 6 7 7 7 7 8 8 7 6 6 5 6 5 5 5 4 4 4 5 5 5 5
12 11 11 11 11 11 11 11 10 11 10 10 9 10 9 8 7 7 6 7 7 6 6 6 6 6 6 6 6 6 5 5 5 5 6 6 6 6 6 6 6 6 6 7 7 7 9 8 7 10 10 10 9 9 8 7 6 6 6 6 6 7 7 6 6 6 6 6 6 7 6 6 6 5 6 6 5 5 5 5 5 5 5 5 5
11 11 10 11 10 10 10 10 11 12 10 10 9 9 9 9 8 8 7 7 7 7 7 7 7 7 7 6 6 6 6 6 6 6 6 6 7 7 7 7 7 8 9 8 8 8 7 7 8 9 10 9 9 9 8 7 6 6 6 5 5 6 9 9 6 6 6 6 5 5 6 5 5 5 5 5 5 4 4 4 4 4 5 5 6
10 10 10 10 10 10 10 11 11 10 10 10 10 9 9 9 9 8 9 8 8 8 7 7 7 7 7 7 7 7 7 7 7 7 7 7 8 8 8 8 10 10 9 10 9 9 8 8 9 8 8 8 8 8 7 7 6 6 6 6 10 16 14 12 8 6 8 6 5 5 5 4 6 5 5 4 4 3 3 3 4 5 5 6 6
10 10 10 10 10 10 10 9 9 9 9 9 9 9 9 9 9 9 9 9 8 8 8 8 7 7 7 7 8 7 7 7 7 7 7 7 7 7 9 9 9 8 8 8 8 8 8 8 8 8 8 8 8 7 6 6 6 6 5 8 15 15 14 14 13 13 8 5 5 5 5 4 4 4 3 3 3 4 4 5 6 6 6 6 7
10 9 9 9 9 9 9 9 9 9 9 9 9 9 9 9 9 9 8 8 8 8 8 8 8 8 8 8 7 7 8 8 8 8 8 8 8 9 10 9 8 8 8 8 7 7 7 7 6 7 7 7 7 6 6 5 5 5 8 13 15 14 14 12 8 10 11 8 5 5 5 5 5 4 3 3 4 4 6 6 7 6 6 6 6
Wind_Direction
8 11 8 9 11 11 7 7 3 357 352 344 331 320 308 296 287 279 277 261 251 241 234 229 223 220 218 215 216 215 212 210 208 207 211 215 216 216 211 203 206 211 209 209 203 203 208 208 208 206 187 191 198 192 194 190 187 197 192 193 200 193 191 208 210 177 142 142 153 158 160 163 178 188 189 191 190 196 207 228 224 226 227 236 228
0 355 359 360 2 5 7 5 2 0 358 356 349 341 328 318 306 294 280 272 259 250 243 235 229 227 223 220 216 217 214 211 209 207 212 214 216 212 212 207 207 211 205 212 200 199 204 205 207 198 191 197 195 195 191 186 189 190 194 192 198 191 194 198 211 187 167 159 166 148 156 175 182 186 196 195 197 195 204 216 223 225 227 227 234
356 353 351 352 353 356 356 358 1 2 0 -0 356 350 344 330 321 307 295 284 270 254 249 243 236 229 227 225 221 219 216 213 211 209 213 215 216 214 209 208 208 209 209 211 201 196 200 207 207 191 178 196 203 200 189 190 186 193 193 191 197 193 188 201 198 198 166 177 173 164 170 178 192 183 192 204 202 205 217 221 223 222 223 231 233
352 354 353 352 351 351 352 350 354 359 358 356 353 348 345 342 332 320 308 295 285 274 256 250 244 237 235 231 228 224 219 218 216 213 216 215 217 219 215 213 213 212 215 215 203 193 199 203 207 191 179 194 201 198 196 190 187 192 187 185 192 189 183 188 207 199 166 157 183 180 174 169 190 184 176 183 200 217 224 234 227 230 230 226 233
350 351 350 349 351 354 351 351 351 351 350 348 348 346 343 344 339 328 321 308 296 284 271 254 251 247 239 233 229 226 222 218 218 219 217 216 219 221 219 214 214 214 216 214 208 197 201 204 200 173 175 193 198 194 188 189 188 179 180 175 182 181 164 186 192 193 172 173 161 176 169 175 179 180 178 180 195 212 221 226 228 229 233 231 229
337 341 343 346 346 350 349 349 348 346 343 343 343 342 341 338 334 332 328 317 306 294 281 269 249 250 245 239 235 232 223 220 225 225 222 220 221 224 226 223 221 219 218 219 208 197 203 207 195 179 187 197 201 193 178 183 172 181 180 176 177 166 172 178 183 184 181 174 161 161 179 174 173 187 187 189 189 191 202 214 224 232 231 231 225
335 336 337 333 335 340 342 338 335 337 339 337 336 337 339 337 335 329 321 307 302 292 286 277 266 254 251 245 241 239 237 231 230 228 225 223 221 224 225 225 225 221 221 221 213 209 213 211 200 194 200 203 198 187 176 172 181 189 182 175 164 164 175 178 177 178 181 173 168 172 170 184 182 182 184 188 198 198 193 191 208 212 218 223 220
327 328 326 328 330 332 328 333 332 326 328 329 328 331 332 333 331 326 325 324 320 311 297 287 276 264 256 250 245 240 238 237 233 230 226 221 219 221 226 228 230 226 224 224 221 217 216 216 214 211 211 209 201 176 158 179 173 180 184 167 166 168 177 174 171 175 177 181 175 172 177 175 183 183 159 174 188 208 209 204 203 189 196 205 215
322 321 321 320 324 323 323 323 327 328 325 324 329 333 334 332 327 324 322 321 318 313 308 301 290 275 261 255 256 244 239 239 235 224 219 223 216 220 228 230 228 229 227 222 221 219 218 217 216 215 215 219 216 213 206 197 171 180 181 163 172 168 169 170 174 172 177 176 177 174 172 180 184 176 178 186 193 197 185 193 217 198 191 206 201
323 324 321 322 323 322 321 319 320 323 322 325 328 328 325 325 328 329 328 324 321 314 304 293 288 286 279 263 249 249 248 245 240 237 232 229 229 233 232 231 231 233 232 226 224 222 220 218 217 220 221 221 220 219 217 213 209 200 161 166 176 165 169 168 173 179 173 179 184 171 178 192 186 187 186 192 184 165 165 186 204 198 189 215 210
321 322 321 322 322 322 322 321 319 316 313 312 315 323 325 324 321 320 319 321 318 312 311 302 297 291 284 279 271 255 245 244 242 234 231 228 231 234 233 236 235 233 233 227 227 223 222 221 221 218 220 221 221 219 211 206 206 216 214 200 177 162 170 170 182 166 179 190 173 177 188 184 185 180 183 172 169 173 177 184 194 194 199 194 188
313 313 315 319 320 322 323 324 324 320 318 315 315 311 310 309 314 314 316 316 317 314 308 299 294 290 282 278 274 270 266 252 241 235 232 229 228 233 235 235 232 232 232 228 227 224 221 219 216 210 205 210 201 202 210 206 204 207 207 209 210 208 195 173 163 178 195 177 175 192 172 188 175 172 176 169 171 172 179 183 193 197 188 197 196
307 308 309 313 315 317 321 324 324 322 319 316 317 317 313 312 311 317 314 311 307 309 308 308 302 298 289 282 276 268 267 265 260 239 233 230 228 227 236 234 233 233 230 228 226 222 213 204 210 207 204 209 206 202 199 199 201 200 200 200 208 209 214 228 271 296 167 166 176 173 187 172 165 183 176 172 163 163 170 182 192 194 196 199 197
303 303 304 304 306 310 313 317 317 317 316 315 318 320 321 318 319 317 311 308 304 300 301 299 298 298 293 287 281 277 271 273 266 251 238 232 232 228 233 235 235 235 231 224 221 222 212 199 202 201 186 185 196 198 190 189 185 187 193 195 197 206 215 217 215 227 238 213 170 176 172 165 172 168 171 165 166 166 171 179 184 185 192 201 199
293 294 295 298 300 304 307 311 314 315 314 312 312 315 314 315 316 316 312 307 303 300 299 299 294 293 289 283 283 276 269 270 269 263 254 243 236 230 234 235 237 238 232 223 220 220 215 207 205 201 190 182 193 190 186 175 181 185 191 197 193 196 200 202 203 203 194 202 210 177 155 164 163 160 159 165 160 153 155 157 166 180 179 187 261
286 291 290 290 293 297 303 306 308 310 310 308 309 312 313 310 312 313 308 300 291 290 290 288 288 290 288 282 281 276 272 266 263 262 257 252 247 238 238 237 239 239 239 229 213 217 218 202 204 199 188 188 191 188 181 166 186 193 198 199 191 192 199 201 197 191 184 188 180 166 155 157 157 156 158 156 149 143 120 94 74 84 106 186 225
282 285 285 286 290 291 295 300 303 305 305 302 304 308 312 312 309 311 301 297 295 291 284 283 285 285 284 284 275 272 272 267 266 263 258 256 251 244 241 241 240 241 236 219 216 216 211 203 206 205 190 195 185 186 184 167 187 195 198 197 187 188 193 191 190 187 183 175 161 154 150 155 156 155 159 158 156 141 119 127 156 164 185 212 235
280 278 277 281 281 286 294 298 299 300 300 297 301 304 304 301 297 298 296 294 291 286 288 288 281 273 276 281 277 276 278 266 260 262 259 254 248 246 245 244 243 240 234 214 215 220 216 217 213 206 195 195 183 191 193 185 196 198 198 196 186 192 190 178 169 177 174 170 166 165 167 166 165 164 167 167 162 145 153 161 168 161 196 215 217
281 281 282 284 284 284 288 290 292 291 288 290 297 298 298 297 294 296 291 289 286 289 287 284 285 280 275 277 275 271 270 272 269 262 258 254 250 244 247 248 248 242 236 225 209 221 217 212 204 204 192 187 186 195 198 192 197 198 191 187 189 194 189 172 168 164 166 164 172 169 172 175 175 176 182 183 176 162 152 133 148 161 189 206 206
283 287 286 285 284 284 286 287 284 282 284 290 292 288 289 291 289 291 291 290 289 287 285 280 282 281 277 277 276 268 269 267 266 262 258 253 248 245 243 247 247 247 240 229 205 207 206 199 200 204 200 192 194 199 200 198 189 183 183 193 189 196 174 166 168 164 169 170 170 172 172 179 181 179 180 183 166 158 157 140 147 158 178 196 203
293 287 285 283 281 279 280 279 280 277 280 286 289 286 283 284 286 285 288 288 284 283 282 281 278 276 271 264 263 265 258 264 270 266 262 256 250 246 243 243 248 247 249 234 213 208 203 204 197 199 204 202 201 202 203 203 197 186 193 194 193 162 158 172 179 172 169 165 168 170 170 150 141 142 148 157 145 150 138 144 155 168 178 193 200
297 290 282 277 274 272 274 274 272 275 280 281 282 280 278 277 277 280 281 281 283 283 280 277 273 269 270 263 256 258 253 245 259 263 260 257 250 244 243 243 241 244 244 236 225 206 205 194 188 189 199 204 205 203 205 206 207 200 203 198 173 166 174 174 168 166 164 171 170 160 151 153 153 155 159 158 152 142 142 144 157 173 188 200 200
295 289 282 281 280 281 281 277 275 270 274 275 276 276 280 280 277 277 276 275 272 275 274 273 269 266 264 262 260 248 237 240 245 251 252 252 250 245 242 243 243 241 244 242 233 203 186 181 181 183 196 203 203 204 205 211 212 207 200 192 183 173 156 151 168 170 170 169 168 168 169 159 159 159 155 157 151 142 142 145 157 171 190 201 208
294 287 283 283 288 285 284 283 280 274 274 278 276 275 276 277 276 275 276 275 275 272 270 269 267 263 261 262 257 252 241 238 234 239 244 246 248 247 246 244 243 241 240 242 236 205 189 187 175 188 200 202 203 204 208 209 210 210 201 194 186 177 156 167 168 176 174 166 170 166 171 174 155 158 161 157 150 146 143 148 160 179 189 200 206
299 291 290 290 288 288 290 286 283 279 273 276 278 278 275 273 275 271 270 271 268 267 266 266 264 263 261 260 262 259 250 232 226 235 238 242 244 246 246 246 245 245 243 241 229 218 184 175 185 195 200 204 203 207 213 214 213 209 201 196 190 186 174 172 175 168 172 173 171 171 166 166 166 157 150 140 138 136 139 145 155 170 170 167 212
297 292 291 289 289 291 292 290 285 280 279 280 275 274 272 271 269 271 267 263 263 262 264 264 262 261 260 259 261 261 255 245 228 225 227 240 241 244 244 244 244 243 244 240 231 211 187 188 194 196 202 205 211 210 210 212 215 211 201 193 190 193 181 175 173 179 175 159 156 163 155 146 147 145 139 140 141 151 144 145 147 152 139 157 219
295 293 291 292 293 291 289 288 289 287 282 278 272 269 269 267 264 264 262 263 264 264 264 263 264 262 260 260 261 262 259 246 239 227 216 227 231 235 238 244 245 247 249 245 229 205 193 187 189 192 196 209 213 211 209 205 209 211 196 191 193 188 180 169 170 167 173 173 175 152 126 133 126 129 148 147 144 147 144 143 145 160 162 179 200
295 293 293 293 291 292 289 287 286 284 282 278 276 272 266 263 263 260 259 258 261 264 263 263 262 263 265 264 265 265 261 254 236 220 215 212 221 222 229 235 236 231 236 237 221 206 185 188 190 194 198 202 208 209 208 208 207 190 183 188 187 179 166 152 138 161 169 167 133 108 117 132 138 142 134 135 136 134 137 139 151 157 163 170 192
292 290 290 290 287 288 285 284 283 283 281 278 271 266 265 266 262 262 254 252 253 258 260 260 258 260 265 266 267 266 265 259 249 220 213 202 205 217 221 224 220 225 227 226 201 188 185 185 186 190 193 198 203 206 207 205 198 185 184 186 177 157 152 156 169 161 157 147 153 145 144 138 132 132 132 130 136 140 141 140 158 154 168 181 205
291 290 290 289 289 289 287 284 284 283 281 280 280 276 265 262 262 261 264 257 253 253 253 256 257 261 262 260 258 261 261 263 273 273 234 221 221 221 221 220 220 221 224 227 194 189 187 188 187 188 191 194 199 202 203 203 192 187 186 175 165 155 167 169 161 162 157 159 155 148 142 137 140 146 142 137 132 140 155 154 166 172 170 187 199
292 291 291 290 290 290 288 287 285 283 282 281 281 281 284 274 266 268 267 266 262 259 259 260 261 260 261 262 259 258 262 267 268 265 264 262 246 234 229 229 231 230 226 227 191 190 189 188 189 188 190 190 196 197 190 193 183 181 175 170 169 162 164 164 167 150 151 152 155 136 141 146 150 148 142 142 140 141 153 162 161 174 183 190 194
292 292 291 290 289 287 285 283 284 283 283 280 280 282 283 286 282 269 271 284 292 294 293 290 286 284 281 276 274 275 270 267 264 263 262 257 255 252 244 239 235 231 228 218 199 196 191 188 183 186 187 192 195 191 189 191 174 176 171 171 175 169 166 169 160 155 158 160 153 146 149 150 146 140 137 138 139 145 154 166 173 180 183 189 200
291 291 290 289 288 287 285 285 284 283 282 280 280 279 280 283 285 289 282 279 279 277 276 276 277 278 277 275 271 267 266 264 263 263 258 254 252 249 247 245 241 233 229 222 195 198 190 192 188 185 186 189 180 186 190 182 177 172 179 176 173 172 171 154 145 157 161 161 135 143 143 139 134 133 132 134 142 150 157 164 169 171 178 183 197
291 291 291 290 289 287 285 283 281 281 279 279 279 279 278 278 280 282 288 290 281 275 271 270 269 268 265 262 261 259 257 256 257 256 255 251 244 240 235 237 240 236 228 223 210 202 193 188 189 192 194 194 186 183 177 176 176 168 169 173 155 155 152 150 151 155 142 150 141 134 136 138 138 138 140 143 148 147 154 161 165 165 179 186 190
293 289 288 287 286 285 285 283 281 280 280 279 279 278 278 278 279 281 282 284 284 283 286 282 280 282 283 282 275 262 252 252 252 253 252 247 238 232 229 231 233 231 227 227 215 201 191 183 182 193 192 189 186 179 174 166 166 169 170 160 155 145 134 151 152 140 133 127 125 127 125 128 129 128 136 144 151 155 157 158 164 171 173 179 182
291 290 290 287 284 283 281 281 279 279 278 277 277 276 277 277 277 278 279 278 279 281 284 282 280 278 279 278 275 275 262 254 254 256 255 253 244 225 221 220 223 224 227 230 217 197 177 175 172 185 188 185 176 172 168 164 171 172 173 164 147 150 149 150 148 140 144 128 129 135 129 119 128 127 122 125 140 148 154 156 161 171 174 177 185
293 290 288 287 285 281 280 279 277 274 274 275 275 274 273 272 272 273 273 275 275 275 275 280 279 275 269 269 272 278 277 262 260 260 260 254 249 223 212 214 220 223 227 229 226 204 186 186 190 183 174 174 168 165 159 161 164 163 152 153 148 141 143 143 151 149 138 128 133 130 131 132 132 142 141 146 154 151 154 153 163 170 179 190 190
279 280 280 280 279 279 278 277 277 277 276 274 273 273 275 275 274 269 267 269 274 277 277 279 290 303 303 293 299 291 269 271 273 273 275 273 263 218 209 208 215 219 226 227 223 208 191 175 182 182 172 164 159 155 154 154 162 161 153 154 156 160 154 152 149 135 126 109 123 125 126 131 135 140 142 147 153 152 159 167 171 180 192 197 202
287 284 282 282 283 282 280 279 278 277 276 276 274 275 276 277 277 279 281 284 285 281 278 278 276 275 280 285 281 284 279 258 262 265 271 273 264 220 204 203 209 218 224 228 213 193 183 189 177 162 156 152 148 148 147 153 157 153 152 153 153 147 144 127 134 132 129 131 123 129 129 136 138 142 146 144 144 150 160 165 187 189 196 197 203
292 293 290 286 286 283 279 274 273 272 271 271 271 270 272 271 272 275 276 275 275 275 277 275 270 266 267 272 280 280 281 284 282 283 275 269 261 224 196 194 206 213 212 217 189 176 168 165 156 145 138 136 139 140 144 152 155 150 152 157 147 151 143 135 137 139 138 134 133 131 134 134 131 130 133 141 145 151 161 173 184 199 206 213 217
295 292 290 287 282 283 280 275 271 268 269 266 269 269 269 269 272 274 275 272 269 273 275 276 273 269 263 261 265 268 274 280 282 276 270 262 260 230 204 203 205 206 201 175 154 148 142 136 141 137 133 133 137 140 145 150 144 140 149 153 149 149 139 129 129 124 124 124 127 129 127 130 136 141 145 151 156 153 160 174 191 204 216 221 228
295 293 293 293 290 285 279 276 272 266 263 263 263 264 267 269 271 271 274 275 279 280 280 280 283 284 283 281 277 271 267 270 275 275 265 262 254 244 220 190 147 124 125 133 138 132 128 136 136 137 140 143 145 138 126 140 147 148 153 154 151 145 140 139 138 129 128 130 128 132 132 135 140 139 143 150 159 161 173 185 197 204 217 225 231
304 302 302 300 300 295 290 285 284 279 272 265 264 262 263 267 268 270 271 271 273 273 275 275 271 268 271 272 272 273 269 264 264 265 267 58 54 56 68 89 100 101 105 121 129 139 142 146 150 155 157 159 158 157 154 155 159 148 142 150 139 129 129 126 125 127 123 128 130 132 132 144 145 154 160 159 165 170 177 183 196 208 217 227 235
310 309 305 304 304 304 305 303 297 284 276 273 266 265 264 264 267 267 269 270 269 270 272 271 268 267 268 278 284 282 287 324 31 56 71 82 80 77 81 89 97 107 119 128 140 146 146 138 131 127 129 120 113 133 139 144 149 145 138 137 137 136 132 132 138 141 140 136 132 134 141 145 148 155 159 161 165 170 181 191 200 210 217 224 235
315 313 312 312 317 318 318 319 320 319 306 287 282 277 269 264 264 264 265 266 268 270 270 273 285 300 315 348 8 13 36 47 56 70 73 75 94 92 75 84 91 110 116 132 137 136 136 131 129 125 122 100 107 116 137 141 144 136 123 128 131 141 143 145 141 135 128 127 134 136 144 155 162 159 162 170 175 175 180 193 200 207 216 227 237
318 317 317 320 322 324 327 329 330 331 336 334 319 308 301 290 282 279 279 282 286 289 302 336 354 0 8 11 21 33 36 46 50 54 66 75 80 74 48 59 72 92 96 113 121 127 123 120 124 113 115 110 111 105 113 119 99 81 91 85 103 107 101 102 114 117 124 127 130 136 138 139 147 148 148 153 169 182 187 201 206 213 221 233 242
321 321 326 326 326 325 330 333 335 340 342 344 347 346 346 346 349 352 356 357 352 356 359 357 2 11 14 20 26 33 32 34 40 43 48 55 63 68 74 73 63 68 67 70 78 91 110 101 87 103 103 106 96 95 96 93 90 86 71 80 86 98 105 111 107 110 114 110 115 124 133 137 144 144 157 161 164 179 191 203 208 219 225 238 247
327 328 328 330 331 336 337 340 342 344 347 347 350 350 350 351 351 355 0 1 7 9 10 13 11 13 17 22 26 29 38 47 49 51 55 52 55 57 54 53 64 85 89 80 73 85 80 82 89 86 97 98 96 99 94 93 88 89 85 83 86 100 111 110 108 106 112 112 112 115 123 130 134 144 154 163 176 184 192 214 220 228 233 239 247
332 334 334 337 341 341 342 342 345 346 349 351 349 350 355 357 1 0 359 3 5 12 16 19 19 19 27 27 27 31 38 39 42 39 43 47 60 67 64 64 72 76 75 87 88 89 78 86 82 78 85 86 89 90 93 92 93 88 93 94 112 115 114 112 110 112 112 108 109 111 113 122 151 160 164 171 184 198 215 234 243 247 250 244 244
335 338 339 341 343 343 342 344 344 345 349 351 353 354 354 357 1 3 1 4 6 9 15 19 25 26 29 34 36 32 35 45 49 50 50 50 50 58 71 67 65 62 61 69 71 76 74 73 72 73 78 83 86 84 88 91 91 100 95 115 120 116 115 113 115 120 119 117 121 131 132 146 149 158 173 191 202 215 228 238 241 241 236 235 245
339 342 345 345 343 342 347 351 352 353 353 352 355 357 357 360 0 1 5 9 12 12 14 17 20 28 36 34 41 45 46 43 47 54 56 58 63 78 86 81 74 72 69 66 69 65 69 70 74 72 73 71 75 80 79 88 89 103 119 122 122 123 124 125 128 136 132 128 130 132 152 158 170 170 196 203 224 227 237 239 244 237 239 247 255